Weather in Novokutovo

Russia / Republic of Bashkortostan     55°12′27″N   54°34′53″E
temp.,
°C
wind,
m/s
gust,
m/s
humid.,
%
clouds,
%
prec.,
mm/h
press.,
hPa
HPBL,
m
2 march, tue
tue223:00−20wsw349861 0.0 101959
02:00−21sw459820 0.0 101882
05:00−21ssw479521 0.0 1016136
08:00−17ssw61393100 0.0 1012279
11:00−13ssw81393100 0.1 1009393
14:00−10ssw81593100 1.3 1005575
17:00−8sw81493100 2.0 1003637
20:00−7ssw81792100 0.6 1001554
3 march, wed
wed323:00−3sw91689100 0.6 999588
02:00−3sw6129491 0.1 998292
05:00−3wsw5109390 0.3 998393
08:00−3wsw5993100 0.1 998462
11:00−4wsw589493 0.1 999359
14:00−2w579389 0.1 1000478
17:00−3w579188 0.2 1000562
20:00−4wsw5994100 0.1 1000454
4 march, thu
thu423:00−5wsw61095100 0.3 1001374
02:00−8wnw51191100 0.4 1002417
05:00−13w599788 0.4 1003166
08:00−14wsw5109785 0.0 1004167
11:00−10wsw6109386 0.1 1005346
14:00−6wsw7119090 0.1 1003618
17:00−5sw6119095 0.1 1002625
20:00−6ssw81493100 0.3 1001631
5 march, fri
fri523:00−5sw91888100 0.5 999693
02:00−2sw91694100 0.4 995919
05:00−1wsw101794100 1.5 9941022
08:00−1wsw91695100 1.1 995950
11:00−3wnw81390100 3.1 998734
14:00−4w7118799 0.1 1001694
17:00−5w599093 0.1 1004539
20:00−7wnw6109199 0.1 1008601
6 march, sat
sat623:00−10wnw499299 0.1 1012345
02:00−16w449745 0.0 101473
05:00−14wsw1197100 0.0 101120
08:00−12ese3495100 0.0 1009125
11:00−9e6995100 1.2 1004272
14:00−6e6996100 3.5 999396
17:00−3nnw2398100 7.5 997194
20:00−8nnw61095100 3.0 998402